Regional Weather Roundup
Issued by NWS

Home | Current Version | Previous Version | Text Only | Print | Product List | Glossary Off
Versions: 1 2 3 4 5 6 7 8 9 10 11 12 13 14 15 16 17 18 19 20 21 22 23 24 25 26 27 28 29 30 31 32 33 34 35 36 37 38 39 40 41 42 43 44 45 46 47 48 49 50

000
ASUS43 KMPX 210201
RWRMN
WEATHER ROUNDUP FOR MINNESOTA
NATIONAL WEATHER SERVICE TWIN CITIES/CHANHASSEN MN
800 PM CST MON FEB 20 2017


NOTE: "FAIR" INDICATES FEW OR NO CLOUDS BELOW 12,000 FEET WITH NO
SIGNIFICANT WEATHER AND/OR OBSTRUCTIONS TO VISIBILITY. N/A MEANS
CURRENT SKY AND/OR WEATHER CONDITIONS ARE NOT AVAILABLE.

MNZ060>063-068>070-210300-
   Twin Cities Metro

CITY           SKY/WX    TMP DP  RH WIND       PRES   REMARKS
TWIN CITIES    CLOUDY    55  51  86 SW14G21   29.69R
ST PAUL        CLOUDY    54  53  97 S8        29.69R
CRYSTAL        CLOUDY   N/A N/A N/A SW10      29.67R
BLAINE         CLOUDY    55  55 100 S12       29.67R FOG
LAKEVILLE      CLOUDY    54  54 100 SW10G17   29.70R
EDEN PRAIRIE   CLOUDY    54  52  93 W14G21    29.68R
SOUTH ST PAUL  CLOUDY    53  52  99 SW6       29.70R
LAKE ELMO      CLOUDY    52  52 100 S12       29.70R
$$
MNZ001>005-007-008-013>017-022>024-027-028-210300-
   Northwest Minnesota

CITY           SKY/WX    TMP DP  RH WIND       PRES   REMARKS
BEMIDJI        CLOUDY    34  33  98 W16       29.65R WCI  23
HALLOCK        CLEAR     32  30  93 W7        29.68R WCI  26
ROSEAU         CLOUDY    34  30  86 W12G18    29.63R WCI  25
WARROAD        CLOUDY    34  30  86 W14       29.61R WCI  24
THIEF RVR FALL CLOUDY    33  32  96 W12       29.69R WCI  24
CROOKSTON      CLEAR     34  34 100 W9        29.73R WCI  26
FOSSTON        CLOUDY    34  32  93 W10       29.71R WCI  26
DETROIT LAKES  CLOUDY    36  34  93 W14       29.75R
MOORHEAD       CLEAR     34  32  93 W6        29.77R WCI  29
PARK RAPIDS    CLOUDY    36  33  89 W17       29.69R
MAHNOMEN       CLOUDY    33  32  97 W8        29.72R WCI  26
$$
MNZ006-009>011-018-025>026-210300-
   North Central Minnesota

CITY           SKY/WX    TMP DP  RH WIND       PRES   REMARKS
BAUDETTE       MIX PCPN  35  33  92 W14       29.58R WCI  26
FLAG ISLAND    CLOUDY    34  34 100 W20G29    29.56R WCI  22
INTL FALLS     LGT RAIN  41  39  93 SW6       29.53S FOG
WASKISH        DRIZZLE   36  34  93 W10       29.62R
LONGVILLE      DRIZZLE   39  39 100 NW6       29.62R
GRAND RAPIDS   LGT RAIN  43  42  97 SW7       29.61R FOG
CRANE LAKE     LGT RAIN  39  39 100 CALM      29.55S
ORR            RAIN      41  39  93 CALM      29.54R
COOK           LGT RAIN  43  41  93 SW3       29.56R
WALKER         CLOUDY    37  35  96 W18G25    29.65R
$$
MNZ012-019>021-037-210300-
   Northeast Minnesota

CITY           SKY/WX    TMP DP  RH WIND       PRES   REMARKS
DULUTH         FOG       42  41  96 S8        29.60R VSB 1/4
ELY            LGT RAIN  43  43 100 S10       29.56S
HIBBING        LGT RAIN  41  41 100 S5        29.57R FOG
EVELETH        LGT RAIN  42  42  97 SW7       29.59R
DULUTH HARBOR  DRZL/FOG  36  34  93 CALM      29.63S VSB 3/4
TWO HARBORS    LGT RAIN  43  37  81 CALM      29.61R VSB 3/4
SILVER BAY     RAIN      39  39 100 CALM      29.61R
GRAND MARAIS     N/A     41  40  96 VRB6      29.63F
G MARAIS ARPRT RAIN      39  37  93 SE3       29.61F VSB 1/2
$$
MNZ029>031-032-039>041-046>048-054>057-064-210300-
   West Central Minnesota

CITY           SKY/WX    TMP DP  RH WIND       PRES   REMARKS
FERGUS FALLS   PTCLDY    36  36 100 NW7       29.81R
WHEATON        CLEAR     36  34  93 W6        29.81S
MORRIS         CLEAR     36  36 100 NW8       29.79R
ALEXANDRIA     CLOUDY    37  37 100 W16       29.77R
ELBOW LAKE     MOCLDY    36  35  98 NW12      29.79R
WADENA         CLOUDY    36  36 100 W10G20    29.72R
GLENWOOD       CLOUDY    37  37 100 W20G28    29.77R
APPLETON       CLEAR     37  36  93 NW5       29.81R
BENSON         PTCLDY    39  34  81 NW12      29.82R
ORTONVILLE     CLEAR     37  36  93 CALM      29.80R
WILLMAR        CLOUDY    41  41 100 W17G25    29.80R
$$
MNZ033>034-036-042>043-049>051-058-059-210300-
   Central Minnesota

CITY           SKY/WX    TMP DP  RH WIND       PRES   REMARKS
ST CLOUD       CLOUDY    45  44  97 W20       29.68R
SAUK CENTRE    CLOUDY    37  37  97 W16G23    29.75R
PAYNESVILLE    CLOUDY    40  40 100 W21G29    29.76R
AITKIN         MIX PCPN  48  45  87 SW7       29.61R
PINE RIVER     CLOUDY    39  39 100 W5        29.68S
BRAINERD       CLOUDY    42  41  96 W12       29.65R
STAPLES        CLOUDY    36  36 100 W16G23    29.71R
LONG PRAIRIE   CLOUDY    37  36  93 SW13G20   29.73R
LITTLE FALLS   CLOUDY    41  39  93 W16       29.70R
LITCHFIELD     CLOUDY    43  41  93 W16G23    29.76R
BUFFALO        CLOUDY    49  47  92 W14       29.70R
MAPLE LAKE     CLOUDY    47  47  99 W14G24    29.71R
HUTCHINSON     CLOUDY    43  42  97 W22G29    29.77R
$$
MNZ037-044-045-052-053-210300-
   East Central Minnesota

CITY           SKY/WX    TMP DP  RH WIND       PRES   REMARKS
PRINCETON      LGT RAIN  54  52  94 SW10G17   29.66R
MORA           HVY RAIN  43  43 100 S7        29.66R VSB 3/4
CAMBRIDGE      RAIN      54  52  94 S8        29.64S
RUSH CITY      CLOUDY    50  48  93 S8        29.66S FOG
MOOSE LAKE     LGT RAIN  46  45  93 S7        29.59F VSB 1/2
HINCKLEY       LGT RAIN  48  48 100 S10       29.64F VSB 1/2
CLOQUET        FOG       37  36  93 CALM      29.61R VSB 1/4
MCGREGOR       CLOUDY    45  45 100 SW7       29.61R
$$
MNZ071>073-080-081-089-090-097-098-210300-
   Southwest Minnesota

CITY           SKY/WX    TMP DP  RH WIND       PRES   REMARKS
MONTEVIDEO     CLEAR     39  39 100 NW7       29.83R
GRANITE FALLS  CLEAR     42  40  91 W10       29.83R
CANBY          CLEAR     46  40  82 NW13      29.82S
MARSHALL       CLEAR     42  39  89 W12       29.83R
REDWOOD FALLS  CLEAR     43  39  86 NW13      29.80R
OLIVIA         PTCLDY    41  37  87 NW15G23   29.80R
PIPESTONE      CLEAR     43  36  75 W7        29.85R
WINDOM         CLEAR     45  41  87 W13       29.83R
WORTHINGTON    CLEAR     44  41  89 W15       29.86R
JACKSON        PTCLDY    45  39  81 W20       29.83S
TRACY          CLEAR     45  42  87 W10       29.84R
SLAYTON        CLEAR     43  40  89 W14       29.85R
$$
MNZ065>067-074>077-082>085-091>093-210300-
   South Central Minnesota

CITY           SKY/WX    TMP DP  RH WIND       PRES   REMARKS
MANKATO          N/A     49  46  90 W22G29    29.77R
NEW ULM        PTCLDY    45  41  87 W20       29.79R
ST JAMES       CLEAR     46  43  87 W15       29.81R
FAIRMONT       PTCLDY    48  43  82 W17       29.82R
GLENCOE        CLOUDY    44  44 100 W20G29    29.73R
FARIBAULT      CLOUDY    54  52  94 SW14G20   29.74R
OWATONNA       CLOUDY    52  48  87 SW18G24   29.75R
WASECA         CLOUDY    52  48  87 W20G25    29.77R
ALBERT LEA     CLOUDY    50  50 100 W18G26    29.78R
$$
MNZ078>079-086>088-094>096-210300-
   Southeast Minnesota

CITY           SKY/WX    TMP DP  RH WIND       PRES   REMARKS
ROCHESTER      LGT RAIN  51  51 100 S13       29.76S FOG
RED WING       CLOUDY    54  52  94 SW10      29.71R
STANTON        CLOUDY    55  52  92 SW17G23   29.70S
DODGE CENTER   CLOUDY    54  52  94 SW18      29.75R FOG
WINONA         DRIZZLE   55  54  94 SW7       29.77R
AUSTIN         CLOUDY    54  52  94 SW12G17   29.77S FOG
PRESTON        CLOUDY    52  51  96 S13       29.76F FOG
$$
ABBREVIATIONS USED IN REMARKS
   TC - TEMPERATURES IN CELSIUS
  WCI - WIND CHILL INDEX
   HX - HEAT INDEX
  VSB - VISIBILITY
$$




USA.gov is the U.S. government's official web portal to all federal, state and local government web resources and services.